DEEEE EDDH-EDXW

Flight info

Callsign DEEEE
Flight time 0h 43m
Altitude 8000
Route SOKWO1C SOKWO T814 EXNEL DCT OLDIP
Aircraft BE36/L-BDFGLORY/S

Departure

Time 2026-05-06 14:24
Airport Hamburg Helmut Schmidt Airport (EDDH)

Arrival

Time 2026-05-06 15:07
Airport Westerland Sylt Airport (EDXW)
Time Latitude Longitude Altitude Speed Heading
2026-05-06 14:00 53.62699 9.98733 41 ft 0 kts 60°
2026-05-06 14:09 53.62700 9.98733 41 ft 0 kts 60°
2026-05-06 14:09 53.62704 9.98737 41 ft 1 kts
2026-05-06 14:09 53.62716 9.98730 41 ft 6 kts 342°
2026-05-06 14:09 53.62722 9.98726 41 ft 2 kts 342°
2026-05-06 14:10 53.62730 9.98721 41 ft 3 kts 337°
2026-05-06 14:10 53.62748 9.98706 41 ft 3 kts 326°
2026-05-06 14:10 53.62751 9.98670 41 ft 4 kts 236°
2026-05-06 14:10 53.62741 9.98652 41 ft 4 kts 225°
2026-05-06 14:11 53.62715 9.98605 41 ft 4 kts 228°
2026-05-06 14:11 53.62687 9.98545 40 ft 7 kts 238°
2026-05-06 14:11 53.62674 9.98493 40 ft 5 kts 265°
2026-05-06 14:11 53.62682 9.98449 40 ft 1 kts 313°
2026-05-06 14:12 53.62700 9.98420 41 ft 0 kts 321°
2026-05-06 14:15 53.62700 9.98419 41 ft 0 kts 321°
2026-05-06 14:22 53.62715 9.98400 41 ft 7 kts 322°
2026-05-06 14:23 53.62806 9.98373 43 ft 27 kts 31°
2026-05-06 14:23 53.63036 9.98812 74 ft 75 kts 49°
2026-05-06 14:23 53.63434 9.99593 279 ft 98 kts 48°
2026-05-06 14:23 53.64100 10.00115 521 ft 125 kts
2026-05-06 14:24 53.64974 9.99541 782 ft 148 kts 331°
2026-05-06 14:24 53.65931 9.98779 942 ft 157 kts 353°
2026-05-06 14:24 53.67030 9.98925 943 ft 163 kts 21°
2026-05-06 14:24 53.68000 9.99856 940 ft 158 kts 30°
2026-05-06 14:25 53.69038 10.00401 940 ft 157 kts 12°
2026-05-06 14:25 53.70101 10.00652 939 ft 154 kts 12°
2026-05-06 14:25 53.71150 10.00924 940 ft 151 kts 12°
2026-05-06 14:25 53.72165 10.01181 1056 ft 144 kts 11°
2026-05-06 14:26 53.73148 10.01432 1189 ft 142 kts 12°
2026-05-06 14:26 53.74129 10.01679 1311 ft 141 kts 12°
2026-05-06 14:26 53.75112 10.01921 1381 ft 141 kts 13°
2026-05-06 14:26 53.76060 10.02165 1488 ft 139 kts 12°
2026-05-06 14:27 53.77032 10.02410 1485 ft 142 kts 12°
2026-05-06 14:27 53.78026 10.02658 1489 ft 146 kts 13°
2026-05-06 14:27 53.79031 10.02914 1491 ft 147 kts 13°
2026-05-06 14:27 53.80067 10.02838 1487 ft 152 kts 352°
2026-05-06 14:28 53.81044 10.02105 1483 ft 156 kts 332°
2026-05-06 14:28 53.81808 10.00798 1486 ft 162 kts 312°
2026-05-06 14:28 53.82472 9.99252 1484 ft 161 kts 313°
2026-05-06 14:28 53.83147 9.97721 1492 ft 163 kts 313°
2026-05-06 14:29 53.83826 9.96160 1488 ft 165 kts 312°
2026-05-06 14:29 53.84508 9.94596 1486 ft 166 kts 312°
2026-05-06 14:29 53.85197 9.93011 1487 ft 167 kts 312°
2026-05-06 14:29 53.85884 9.91428 1496 ft 167 kts 313°
2026-05-06 14:30 53.86580 9.89835 1486 ft 168 kts 311°
2026-05-06 14:30 53.87267 9.88241 1493 ft 168 kts 311°
2026-05-06 14:30 53.87956 9.86647 1484 ft 167 kts 311°
2026-05-06 14:30 53.88643 9.85075 1481 ft 165 kts 312°
2026-05-06 14:31 53.89326 9.83510 1482 ft 165 kts 312°
2026-05-06 14:31 53.90006 9.81932 1474 ft 165 kts 312°
2026-05-06 14:31 53.90684 9.80361 1481 ft 165 kts 312°
2026-05-06 14:31 53.91366 9.78794 1480 ft 165 kts 312°
2026-05-06 14:32 53.92045 9.77223 1481 ft 164 kts 312°
2026-05-06 14:32 53.92720 9.75661 1481 ft 165 kts 312°
2026-05-06 14:32 53.93400 9.74090 1483 ft 166 kts 312°
2026-05-06 14:32 53.94092 9.72481 1489 ft 172 kts 312°
2026-05-06 14:33 53.94808 9.70828 1493 ft 178 kts 311°
2026-05-06 14:33 53.95544 9.69119 1491 ft 180 kts 311°
2026-05-06 14:33 53.96284 9.67400 1484 ft 176 kts 311°
2026-05-06 14:33 53.96990 9.65753 1487 ft 170 kts 311°
2026-05-06 14:34 53.97680 9.64143 1478 ft 167 kts 312°
2026-05-06 14:34 53.98356 9.62572 1479 ft 161 kts 312°
2026-05-06 14:34 53.99001 9.61073 1474 ft 154 kts 312°
2026-05-06 14:34 53.99621 9.59629 1481 ft 149 kts 313°
2026-05-06 14:35 54.00231 9.58215 1475 ft 148 kts 312°
2026-05-06 14:35 54.00826 9.56823 1480 ft 143 kts 313°
2026-05-06 14:35 54.01407 9.55470 1479 ft 140 kts 313°
2026-05-06 14:35 54.01973 9.54148 1477 ft 137 kts 313°
2026-05-06 14:36 54.02536 9.52836 1486 ft 137 kts 313°
2026-05-06 14:36 54.03101 9.51519 1482 ft 139 kts 313°
2026-05-06 14:36 54.03666 9.50190 1479 ft 138 kts 313°
2026-05-06 14:36 54.04230 9.48879 1482 ft 138 kts 313°
2026-05-06 14:37 54.04829 9.47484 1497 ft 153 kts 311°
2026-05-06 14:37 54.05470 9.45987 1499 ft 159 kts 311°
2026-05-06 14:37 54.06127 9.44439 1500 ft 161 kts 311°
2026-05-06 14:37 54.06784 9.42906 1497 ft 164 kts 311°
2026-05-06 14:38 54.07452 9.41333 1491 ft 163 kts 311°
2026-05-06 14:38 54.08116 9.39770 1497 ft 162 kts 311°
2026-05-06 14:38 54.08777 9.38214 1496 ft 162 kts 311°
2026-05-06 14:38 54.09449 9.36641 1491 ft 164 kts 311°
2026-05-06 14:39 54.10125 9.35055 1493 ft 167 kts 311°
2026-05-06 14:39 54.10799 9.33464 1498 ft 168 kts 311°
2026-05-06 14:39 54.11497 9.31821 1497 ft 170 kts 311°
2026-05-06 14:39 54.12196 9.30184 1493 ft 173 kts 311°
2026-05-06 14:40 54.12907 9.28537 1465 ft 175 kts 315°
2026-05-06 14:40 54.13819 9.27194 1458 ft 174 kts 326°
2026-05-06 14:40 54.14739 9.25851 1463 ft 173 kts 324°
2026-05-06 14:40 54.15650 9.24511 1456 ft 171 kts 326°
2026-05-06 14:41 54.16549 9.23215 1457 ft 169 kts 325°
2026-05-06 14:41 54.17449 9.21916 1458 ft 169 kts 325°
2026-05-06 14:41 54.18337 9.20614 1453 ft 166 kts 323°
2026-05-06 14:41 54.19199 9.19339 1457 ft 161 kts 326°
2026-05-06 14:42 54.20066 9.18126 1448 ft 160 kts 325°
2026-05-06 14:42 54.20910 9.16886 1452 ft 159 kts 325°
2026-05-06 14:42 54.21734 9.15694 1455 ft 156 kts 325°
2026-05-06 14:42 54.22558 9.14488 1456 ft 154 kts 325°
2026-05-06 14:43 54.23370 9.13304 1461 ft 153 kts 326°
2026-05-06 14:43 54.24186 9.12120 1470 ft 154 kts 326°
2026-05-06 14:43 54.25010 9.10923 1467 ft 156 kts 325°
2026-05-06 14:43 54.25842 9.09701 1470 ft 159 kts 325°
2026-05-06 14:44 54.26401 9.08890 1469 ft 159 kts 326°
2026-05-06 14:44 54.27244 9.07657 1468 ft 159 kts 325°
2026-05-06 14:44 54.28077 9.06431 1469 ft 159 kts 325°
2026-05-06 14:45 54.30001 9.03627 1462 ft 155 kts 325°
2026-05-06 14:45 54.30550 9.02821 1461 ft 154 kts 325°
2026-05-06 14:45 54.31371 9.01614 1461 ft 155 kts 326°
2026-05-06 14:45 54.32185 9.00435 1459 ft 156 kts 325°
2026-05-06 14:46 54.33013 8.99225 1469 ft 157 kts 325°
2026-05-06 14:46 54.33845 8.97996 1467 ft 156 kts 325°
2026-05-06 14:46 54.34677 8.96782 1474 ft 159 kts 325°
2026-05-06 14:46 54.35516 8.95543 1471 ft 158 kts 324°
2026-05-06 14:47 54.36348 8.94323 1482 ft 158 kts 324°
2026-05-06 14:47 54.37194 8.93083 1470 ft 159 kts 324°
2026-05-06 14:47 54.38024 8.91860 1471 ft 156 kts 325°
2026-05-06 14:47 54.38846 8.90651 1469 ft 155 kts 325°
2026-05-06 14:48 54.39663 8.89456 1479 ft 155 kts 326°
2026-05-06 14:48 54.40490 8.88236 1480 ft 159 kts 325°
2026-05-06 14:48 54.41317 8.87011 1472 ft 158 kts 325°
2026-05-06 14:48 54.42144 8.85792 1470 ft 155 kts 324°
2026-05-06 14:49 54.42963 8.84584 1466 ft 154 kts 324°
2026-05-06 14:49 54.43775 8.83389 1468 ft 153 kts 324°
2026-05-06 14:49 54.44585 8.82193 1468 ft 153 kts 324°
2026-05-06 14:49 54.45389 8.81002 1467 ft 152 kts 324°
2026-05-06 14:50 54.46247 8.80007 1475 ft 147 kts 343°
2026-05-06 14:50 54.47209 8.79441 1474 ft 146 kts 345°
2026-05-06 14:50 54.48154 8.78842 1471 ft 146 kts 345°
2026-05-06 14:50 54.49106 8.78247 1470 ft 145 kts 345°
2026-05-06 14:51 54.50052 8.77661 1472 ft 144 kts 344°
2026-05-06 14:51 54.50995 8.77075 1470 ft 144 kts 344°
2026-05-06 14:51 54.51944 8.76486 1470 ft 145 kts 345°
2026-05-06 14:51 54.52899 8.75893 1475 ft 146 kts 345°
2026-05-06 14:52 54.53858 8.75299 1471 ft 146 kts 345°
2026-05-06 14:52 54.54817 8.74701 1472 ft 147 kts 345°
2026-05-06 14:52 54.55766 8.74109 1473 ft 147 kts 346°
2026-05-06 14:52 54.56722 8.73517 1475 ft 145 kts 345°
2026-05-06 14:53 54.57667 8.72925 1479 ft 144 kts 343°
2026-05-06 14:53 54.58617 8.72336 1476 ft 145 kts 343°
2026-05-06 14:53 54.59570 8.71741 1472 ft 145 kts 343°
2026-05-06 14:53 54.60517 8.71149 1478 ft 144 kts 344°
2026-05-06 14:54 54.61463 8.70538 1476 ft 147 kts 340°
2026-05-06 14:54 54.62276 8.69432 1480 ft 152 kts 317°
2026-05-06 14:54 54.63009 8.68099 1477 ft 153 kts 319°
2026-05-06 14:54 54.63751 8.66772 1482 ft 153 kts 319°
2026-05-06 14:55 54.64489 8.65446 1482 ft 153 kts 319°
2026-05-06 14:55 54.65230 8.64109 1487 ft 155 kts 319°
2026-05-06 14:55 54.65972 8.62764 1488 ft 154 kts 319°
2026-05-06 14:55 54.66696 8.61452 1493 ft 152 kts 319°
2026-05-06 14:56 54.67423 8.60136 1493 ft 150 kts 319°
2026-05-06 14:56 54.68142 8.58840 1494 ft 149 kts 319°
2026-05-06 14:56 54.68854 8.57550 1491 ft 148 kts 319°
2026-05-06 14:56 54.69572 8.56252 1498 ft 151 kts 318°
2026-05-06 14:57 54.70298 8.54928 1499 ft 151 kts 319°
2026-05-06 14:57 54.71028 8.53605 1505 ft 153 kts 314°
2026-05-06 14:57 54.71540 8.51945 1505 ft 161 kts 291°
2026-05-06 14:57 54.71845 8.50071 1503 ft 161 kts 292°
2026-05-06 14:58 54.72163 8.48240 1511 ft 160 kts 292°
2026-05-06 14:58 54.72484 8.46377 1510 ft 162 kts 292°
2026-05-06 14:58 54.72802 8.44512 1507 ft 160 kts 292°
2026-05-06 14:58 54.73125 8.42681 1502 ft 157 kts 292°
2026-05-06 14:59 54.73439 8.40861 1505 ft 158 kts 292°
2026-05-06 14:59 54.73751 8.39029 1504 ft 157 kts 292°
2026-05-06 14:59 54.74052 8.37260 1503 ft 153 kts 291°
2026-05-06 14:59 54.74351 8.35511 1504 ft 151 kts 292°
2026-05-06 15:00 54.74710 8.33817 1500 ft 147 kts 307°
2026-05-06 15:00 54.75389 8.32539 1434 ft 145 kts 329°
2026-05-06 15:00 54.76292 8.31828 1337 ft 143 kts 350°
2026-05-06 15:00 54.77270 8.31730 1236 ft 135 kts
2026-05-06 15:01 54.78169 8.31726 1117 ft 125 kts
2026-05-06 15:01 54.79020 8.31723 955 ft 122 kts 360°
2026-05-06 15:01 54.79865 8.31722 815 ft 118 kts
2026-05-06 15:01 54.80652 8.31723 804 ft 109 kts
2026-05-06 15:02 54.81389 8.31723 805 ft 103 kts
2026-05-06 15:02 54.82094 8.31722 805 ft 97 kts
2026-05-06 15:02 54.82753 8.31723 808 ft 92 kts 359°
2026-05-06 15:02 54.83364 8.31723 805 ft 85 kts 360°
2026-05-06 15:03 54.83918 8.31982 806 ft 81 kts 22°
2026-05-06 15:03 54.84344 8.32575 807 ft 77 kts 37°
2026-05-06 15:03 54.84730 8.33198 765 ft 76 kts 34°
2026-05-06 15:03 54.85122 8.33831 687 ft 80 kts 34°
2026-05-06 15:04 54.85541 8.34516 621 ft 84 kts 36°
2026-05-06 15:04 54.85960 8.35208 622 ft 82 kts 36°
2026-05-06 15:04 54.86369 8.35881 612 ft 78 kts 34°
2026-05-06 15:04 54.86743 8.36496 606 ft 72 kts 34°
2026-05-06 15:05 54.87120 8.37110 609 ft 76 kts 34°
2026-05-06 15:05 54.87538 8.37648 613 ft 72 kts 12°
2026-05-06 15:05 54.88003 8.37771 615 ft 66 kts 353°
2026-05-06 15:05 54.88433 8.37573 607 ft 63 kts 343°
2026-05-06 15:06 54.88798 8.37106 535 ft 67 kts 325°
2026-05-06 15:06 54.89145 8.36645 448 ft 59 kts 333°
2026-05-06 15:06 54.89501 8.36260 363 ft 64 kts 333°
2026-05-06 15:06 54.89869 8.35808 266 ft 64 kts 329°
2026-05-06 15:07 54.90228 8.35388 148 ft 61 kts 327°
2026-05-06 15:07 54.90566 8.34968 33 ft 55 kts 323°
2026-05-06 15:07 54.90815 8.34669 30 ft 34 kts 325°
2026-05-06 15:07 54.90965 8.34487 35 ft 20 kts 325°
2026-05-06 15:08 54.91052 8.34382 37 ft 10 kts 324°
2026-05-06 15:08 54.91113 8.34305 38 ft 13 kts 323°
2026-05-06 15:08 54.91190 8.34210 35 ft 13 kts 325°
2026-05-06 15:08 54.91247 8.34139 35 ft 9 kts 324°
2026-05-06 15:09 54.91306 8.34027 32 ft 13 kts 268°
2026-05-06 15:09 54.91264 8.33887 29 ft 14 kts 246°
2026-05-06 15:09 54.91238 8.33762 27 ft 11 kts 219°
2026-05-06 15:09 54.91180 8.33625 24 ft 16 kts 240°
2026-05-06 15:10 54.91121 8.33451 20 ft 16 kts 237°
2026-05-06 15:10 54.91073 8.33306 20 ft 13 kts 240°
2026-05-06 15:10 54.91029 8.33174 19 ft 12 kts 239°
2026-05-06 15:10 54.91007 8.33062 21 ft 8 kts 273°
2026-05-06 15:11 54.91023 8.32986 21 ft 5 kts 306°
2026-05-06 15:11 54.91039 8.32950 22 ft 4 kts 310°
2026-05-06 15:11 54.91056 8.32915 24 ft 5 kts 311°
2026-05-06 15:11 54.91095 8.32841 22 ft 13 kts 311°
2026-05-06 15:12 54.91159 8.32703 19 ft 12 kts 312°
2026-05-06 15:12 54.91214 8.32623 19 ft 11 kts 327°
2026-05-06 15:12 54.91264 8.32572 19 ft 5 kts 332°
2026-05-06 15:12 54.91297 8.32540 19 ft 1 kts 290°
2026-05-06 15:13 54.91296 8.32500 19 ft 0 kts 274°
2026-05-06 15:13 54.91296 8.32497 19 ft 0 kts 270°